Wind_Speed
29 31 32 32 32 30 28 28 27 27 27 26 26 25 24 22 23 23 22 22 24 25 24 23 23 23 22 21 19 16 15 14 12 10 9 9 9 8 8 8 7 7 7 7 6 6 7 7 7 8 8 8 8 7 8 9 8 8 9 9 9 9 9 10 10 9 9 9 10 10 10 9 7 6 6 8 8 9 10 10 10 10 9 8 7
28 30 32 32 31 30 29 28 27 27 27 27 26 25 25 25 24 23 22 23 25 24 23 22 22 21 20 19 17 15 14 13 11 10 9 9 9 8 8 8 8 7 7 6 6 6 7 7 8 9 9 9 9 8 9 9 9 9 10 10 10 10 9 11 11 11 10 9 9 10 11 9 8 7 8 8 9 9 9 9 9 9 8 8 7
29 32 33 31 31 31 29 28 27 26 26 26 26 27 27 27 26 24 23 24 25 24 22 21 20 19 17 15 15 14 13 12 10 10 10 10 9 8 7 7 7 7 6 6 6 7 7 7 8 8 9 9 8 8 9 9 9 10 10 9 10 10 10 11 12 12 11 9 9 9 11 11 10 9 10 8 7 8 9 10 9 8 8 8 7
31 33 32 32 32 31 31 30 27 25 27 28 28 29 30 30 28 24 22 23 25 24 22 19 18 17 15 14 14 13 12 12 12 11 11 10 9 8 7 7 7 6 6 6 7 7 7 8 7 7 8 8 8 8 8 8 9 10 11 10 10 10 11 12 13 12 10 9 9 8 10 12 11 10 10 8 5 4 7 10 9 8 8 7 6
36 35 34 35 35 34 33 31 28 26 27 28 30 32 32 32 28 24 23 24 24 24 22 20 18 18 17 16 16 15 14 14 14 14 12 11 10 9 8 8 7 7 6 7 7 7 8 8 7 7 8 8 9 9 8 8 9 11 11 10 10 9 9 11 12 12 10 10 9 6 7 9 10 11 10 7 3 2 7 8 8 7 7 6 4
37 38 38 39 37 36 34 32 31 31 29 29 33 34 34 33 28 23 23 25 25 24 22 20 19 19 18 18 18 17 17 16 14 13 13 12 11 9 9 8 8 7 7 7 7 8 8 7 7 7 8 8 9 9 9 8 9 11 11 10 10 10 9 10 11 12 12 11 11 7 4 4 6 9 10 9 7 6 8 9 8 8 7 6 7
37 39 39 40 39 37 36 34 32 33 33 33 34 35 35 33 27 23 25 26 25 24 22 21 20 19 18 17 17 17 17 16 14 13 13 13 12 10 9 8 7 7 6 6 6 7 7 7 7 8 8 8 8 9 9 9 9 10 11 10 10 11 11 11 11 12 13 12 12 10 5 3 2 3 6 11 12 11 10 9 10 11 11 11 11
41 41 41 41 40 38 37 35 32 31 32 32 33 34 34 31 26 24 26 26 25 24 23 21 20 19 17 17 17 16 16 15 15 14 13 12 12 11 10 9 8 8 7 7 6 6 6 6 6 7 7 7 7 8 9 9 10 10 11 11 11 11 12 12 11 12 12 11 12 11 9 6 5 3 3 7 13 18 15 13 13 13 14 14 13
43 44 44 42 41 39 36 34 32 30 31 32 32 32 32 29 26 24 26 26 24 24 23 21 20 18 17 18 18 17 16 14 14 14 12 12 12 11 11 10 9 9 7 7 6 5 5 5 5 5 6 6 7 8 9 10 10 10 11 11 11 11 11 12 12 12 12 11 11 12 11 9 7 5 4 6 11 17 17 17 18 17 17 16 15
42 42 43 42 40 37 34 33 33 31 31 32 31 30 30 29 26 25 27 26 24 23 23 22 20 19 18 18 18 18 17 15 14 13 12 12 12 11 10 10 10 9 7 6 6 6 6 6 5 5 5 6 7 8 8 8 9 9 10 11 11 11 12 13 13 13 13 12 12 12 12 11 8 7 8 9 11 13 15 18 20 20 20 18 16
40 40 40 40 39 36 34 34 33 31 31 32 31 30 29 29 27 25 25 26 25 24 23 22 21 20 19 18 18 17 17 15 15 14 13 13 12 11 10 10 9 8 7 5 4 5 6 6 6 6 6 7 7 7 7 7 7 7 8 9 9 11 12 13 13 13 14 13 13 13 12 11 9 8 8 10 13 13 15 20 20 19 20 19 17
32 31 28 26 29 31 31 32 31 29 29 29 30 29 28 29 28 24 24 26 27 26 25 23 21 20 19 18 17 16 15 13 12 12 13 12 11 10 9 8 6 5 4 4 4 4 6 7 7 7 7 7 7 7 7 7 7 7 6 7 8 9 10 12 13 13 13 13 13 12 11 10 9 8 8 9 11 11 14 22 22 20 19 18 16
18 19 17 16 21 25 26 28 28 26 26 27 29 29 27 28 28 25 25 27 28 27 26 23 21 20 18 17 16 14 12 10 9 10 11 11 10 8 6 4 3 3 2 2 3 5 5 6 7 7 6 6 5 6 9 9 7 7 6 6 7 7 8 10 11 11 12 13 12 11 11 10 9 8 8 9 10 12 15 21 23 20 19 19 17
10 12 17 19 23 24 22 24 26 25 24 25 27 28 28 28 27 27 27 28 28 27 25 22 20 18 17 17 15 13 11 8 7 8 10 10 8 5 3 3 2 2 1 0 2 3 4 4 6 6 6 5 3 3 7 10 8 7 7 7 7 7 8 9 10 11 12 12 11 11 11 11 9 8 8 9 11 13 17 21 23 21 18 17 16
16 16 21 22 22 22 20 20 22 23 22 22 23 25 26 25 25 26 26 26 26 26 25 22 19 18 17 15 13 11 9 6 5 7 9 9 7 5 3 3 2 2 1 0 1 1 1 2 3 5 5 5 3 2 5 9 9 8 7 7 7 8 8 9 10 11 11 11 10 11 11 10 9 9 8 9 10 11 15 19 21 20 18 17 15
20 21 24 23 21 21 21 20 20 20 19 19 20 21 22 20 20 22 22 22 22 23 23 21 19 18 16 14 12 11 9 7 6 9 9 7 5 4 3 2 2 2 2 1 1 1 1 1 2 3 4 4 4 3 4 6 8 8 8 7 7 8 8 8 9 9 10 10 10 12 12 10 9 9 9 9 9 10 13 17 16 11 11 17 18
15 17 19 20 19 20 21 20 19 19 18 17 17 16 17 16 16 18 17 18 20 20 18 17 17 17 15 13 13 11 8 7 7 9 9 7 6 5 3 2 2 2 2 2 1 2 2 3 3 3 4 5 5 4 4 5 7 8 7 7 7 8 8 8 8 8 8 9 11 13 12 10 10 10 10 10 9 10 12 15 13 3 2 12 19
10 10 12 14 15 16 17 16 17 18 17 17 15 12 12 13 15 15 12 13 16 17 18 18 18 16 15 14 12 10 8 8 9 9 8 8 8 6 4 3 2 0 1 2 2 2 2 4 6 5 5 5 6 5 5 5 6 7 7 6 6 7 8 7 7 8 7 8 11 13 13 12 11 10 10 10 9 10 12 13 11 4 4 4 14
8 7 8 9 10 11 11 12 14 15 15 15 13 10 10 11 10 6 7 11 15 17 18 19 19 16 15 14 12 11 11 11 11 11 10 9 9 7 4 3 2 1 2 3 4 3 2 4 6 7 6 7 7 6 5 5 6 7 6 5 5 6 6 6 6 6 6 6 9 12 13 12 10 9 11 10 9 10 12 11 8 5 1 1 7
6 6 6 8 9 8 8 7 7 10 12 12 11 9 10 11 8 5 9 15 18 18 18 18 19 17 15 14 14 14 13 11 11 10 10 10 9 6 4 3 2 1 3 4 5 4 3 4 6 7 7 8 8 6 5 5 7 7 6 5 5 6 6 5 4 4 4 4 6 10 12 11 10 10 11 10 10 11 12 10 8 6 4 5 6
6 7 7 8 8 7 8 8 7 7 8 9 9 10 11 11 8 8 12 16 18 18 19 19 19 18 16 15 15 14 13 11 10 10 12 12 9 6 4 3 2 2 3 5 5 4 3 4 5 6 7 8 9 7 6 7 7 8 7 6 6 7 7 5 4 4 2 2 4 7 10 11 10 11 11 11 11 12 12 10 9 8 7 6 6
9 11 9 9 8 7 7 6 7 7 5 7 8 10 13 13 10 9 11 15 17 18 18 19 18 17 16 15 15 15 12 10 10 12 14 13 9 5 3 2 2 2 4 4 3 3 3 4 5 6 6 7 8 7 7 7 7 8 8 7 7 7 6 5 5 5 3 2 4 7 10 12 12 11 12 12 11 11 11 10 9 8 8 8 7
8 10 11 10 8 7 6 5 7 7 6 6 7 7 10 11 11 10 10 12 16 17 18 19 18 17 16 16 17 16 14 11 11 13 14 12 8 5 3 2 2 3 4 4 4 4 4 5 5 5 5 6 7 7 8 7 7 8 8 8 7 6 5 4 5 4 4 3 5 10 12 13 13 13 12 12 11 11 10 9 8 8 8 8 9
11 11 12 15 13 10 10 9 9 9 6 7 9 9 8 8 9 10 9 10 14 16 18 18 17 17 18 18 19 19 16 14 14 14 13 10 7 6 4 2 2 3 4 4 5 5 5 6 6 6 6 6 7 8 9 9 8 7 8 8 8 7 6 5 5 4 4 4 6 10 13 14 13 13 12 11 11 10 9 8 8 9 9 10 11
17 17 16 17 18 17 17 14 11 9 9 9 10 11 11 11 12 12 11 10 11 14 17 18 18 19 20 20 21 21 18 16 15 15 13 11 9 7 6 3 2 2 4 5 5 5 6 7 7 8 7 6 6 6 7 9 8 8 9 9 9 9 9 8 8 7 6 5 6 8 11 12 12 11 10 10 9 9 9 8 9 11 12 12 13
17 20 18 17 18 19 18 16 14 15 15 13 11 12 14 14 14 14 13 13 12 14 15 17 20 21 21 21 22 22 20 17 17 16 15 14 12 10 8 5 4 3 4 4 3 3 3 3 5 6 7 7 6 5 4 5 7 9 10 10 11 11 12 11 11 10 10 9 7 7 8 8 9 8 8 8 8 8 9 9 9 11 12 14 16
16 18 19 18 19 19 19 19 19 20 20 16 14 15 15 14 14 14 14 15 15 15 16 17 19 20 20 21 23 24 21 19 20 19 18 16 13 10 9 8 7 6 4 3 3 3 3 2 2 1 3 6 6 6 5 4 6 8 9 10 12 13 12 11 11 11 12 12 11 10 9 8 8 8 8 9 9 8 8 8 8 8 10 12 14
17 18 18 18 17 17 19 20 19 19 20 18 16 17 16 16 16 15 15 16 16 16 17 17 17 18 20 22 24 23 21 22 22 21 20 19 15 10 7 6 7 7 5 3 2 2 2 2 2 3 1 2 5 6 6 6 6 7 7 8 11 13 12 11 10 9 11 13 15 14 13 12 11 11 11 10 9 9 8 7 7 8 8 8 10
17 16 16 18 18 17 18 21 22 21 21 20 18 18 17 17 17 16 15 16 16 16 17 17 16 17 19 21 22 21 21 22 22 19 19 20 17 11 5 3 4 6 7 5 4 3 3 2 2 1 2 2 1 2 5 6 7 7 6 7 9 12 12 11 11 11 11 12 14 15 15 15 14 14 13 12 11 10 10 9 8 8 8 8 9
19 19 18 20 22 22 22 24 25 24 23 21 20 19 19 19 18 17 15 14 15 17 19 18 16 14 15 18 20 19 19 19 18 17 16 16 18 18 13 10 11 9 8 8 7 6 6 5 4 2 1 1 2 1 1 4 7 7 7 7 9 11 12 12 13 13 13 13 13 15 15 15 15 15 14 13 12 12 12 12 11 10 10 10 10
22 22 21 22 24 25 25 26 27 26 24 23 21 19 19 19 18 17 16 13 14 17 18 17 15 12 12 14 16 17 16 15 14 14 12 11 14 18 16 14 13 10 9 10 10 8 8 7 6 4 3 2 1 2 2 3 4 6 7 8 9 10 12 12 13 14 14 13 13 14 15 15 15 15 14 14 14 14 14 14 14 14 13 13 13
22 24 23 23 26 27 26 27 27 25 24 22 21 20 20 19 18 17 16 14 15 15 14 14 12 11 10 11 13 15 14 13 12 13 12 12 13 15 15 14 13 11 11 11 11 10 9 8 7 6 5 4 3 4 4 4 5 5 6 7 8 9 10 11 12 14 14 14 15 15 16 16 16 16 16 16 15 16 16 15 15 16 16 16 16
23 26 26 27 29 29 29 29 28 26 25 23 22 23 23 22 21 20 18 16 16 15 14 13 13 11 11 11 11 13 14 13 13 14 15 15 15 14 15 14 13 12 13 12 12 12 10 9 8 8 7 7 6 6 7 7 7 7 8 8 8 8 9 9 10 11 13 14 15 16 17 18 18 17 17 16 16 16 16 16 16 16 16 16 17
25 26 28 29 31 32 32 32 30 29 28 26 24 25 26 25 23 21 19 18 18 17 16 16 15 14 13 10 9 11 13 14 14 14 16 17 16 16 16 16 14 13 13 12 12 12 11 11 10 10 9 10 9 9 9 9 9 9 10 11 11 11 11 10 10 11 11 12 13 14 16 16 16 16 16 15 15 16 16 16 16 16 17 17 17
26 27 29 30 32 33 34 35 34 33 32 30 29 28 26 25 22 20 19 20 20 20 20 19 18 17 15 12 10 10 11 11 12 12 14 15 16 15 16 17 16 15 14 13 11 11 11 12 12 12 12 12 12 12 12 12 12 12 12 13 14 15 15 15 15 14 14 14 13 14 16 16 16 16 16 17 17 17 18 18 18 19 19 19 20
25 26 27 28 30 32 33 34 33 33 33 32 31 29 28 27 25 24 23 23 23 22 22 22 21 20 18 16 14 12 11 10 9 9 11 12 13 14 14 15 15 15 14 13 12 12 11 12 12 12 13 13 14 14 14 14 14 14 15 15 16 17 18 19 19 19 19 19 18 19 19 19 19 20 19 20 20 21 21 21 21 21 22 23 24
22 21 22 24 26 27 29 30 30 30 29 28 27 26 27 28 27 26 25 24 23 23 22 20 20 19 18 17 15 14 13 11 10 8 8 9 10 11 12 11 12 12 12 11 12 12 12 12 12 12 13 14 15 16 16 17 17 17 17 18 18 19 20 21 21 22 23 24 24 25 24 24 24 24 23 23 24 25 25 25 24 24 24 26 27
20 19 18 19 20 20 22 23 25 26 24 22 20 19 21 23 23 22 21 21 20 20 18 17 16 15 14 13 12 11 11 10 9 8 8 8 8 8 9 9 9 10 10 10 10 9 10 11 12 13 13 14 15 17 18 19 20 20 20 21 21 22 22 23 23 24 25 26 27 27 27 27 27 26 25 26 27 28 29 28 27 26 28 29 29
20 18 18 18 18 17 17 17 19 20 17 14 12 11 13 17 17 16 15 16 16 15 14 12 12 11 9 8 7 6 6 5 4 4 4 4 4 5 5 6 7 7 8 8 8 8 9 10 11 12 13 13 14 15 16 18 19 20 21 22 23 24 24 25 26 26 27 28 28 27 27 28 28 27 27 27 27 28 29 28 27 28 29 30 29
19 18 18 19 19 19 19 18 19 18 15 12 8 5 7 11 12 10 10 11 12 11 10 9 8 7 6 5 4 3 2 1 1 2 2 3 4 5 5 6 8 9 9 10 10 11 11 12 12 13 14 15 15 15 16 17 18 19 20 21 23 24 26 27 28 29 30 31 31 29 27 26 26 25 24 24 24 25 26 25 24 25 27 27 27
17 16 15 16 17 18 20 20 19 17 15 12 9 7 8 9 9 8 10 11 10 10 8 7 6 5 4 4 4 4 5 6 6 7 7 8 9 10 11 11 12 13 14 14 15 15 16 16 17 17 18 18 18 19 19 20 21 21 22 23 23 24 25 27 28 30 31 33 33 30 26 25 26 26 24 21 20 21 22 23 23 23 24 24 25
16 14 12 11 12 14 16 18 17 15 14 12 9 9 11 9 8 10 11 11 10 9 8 8 7 7 6 6 6 7 8 8 9 9 10 11 12 12 14 14 15 16 17 18 19 20 20 20 21 21 21 22 23 23 24 25 25 26 26 27 27 27 27 28 28 29 30 31 31 30 27 24 24 27 28 26 23 22 23 23 23 23 23 23 24
14 11 9 9 10 12 13 14 14 13 14 13 11 11 12 10 9 11 11 9 9 8 8 8 8 8 8 8 9 9 10 10 11 11 12 13 13 14 15 17 17 18 19 20 21 22 23 23 24 24 24 24 25 25 26 26 27 28 29 30 30 30 31 32 32 32 32 31 31 31 29 26 25 25 27 28 28 27 27 27 25 24 23 24 25
12 10 8 7 9 10 11 11 11 11 12 13 13 13 13 11 11 12 11 9 9 8 8 8 9 9 9 9 10 10 11 12 13 13 14 14 15 16 17 18 19 20 21 22 23 24 26 27 28 28 28 27 27 27 27 27 27 28 29 30 32 32 32 33 35 35 35 35 35 34 32 31 29 28 27 28 29 30 30 29 28 26 26 25 26
12 10 9 8 8 9 9 9 10 11 12 13 14 14 13 12 11 11 10 10 10 9 9 9 10 10 11 11 11 12 12 13 14 14 15 16 16 16 17 17 18 19 20 22 23 24 25 26 27 28 29 29 29 30 30 29 29 29 29 30 31 32 32 33 35 36 36 37 37 37 36 35 34 33 32 31 31 31 31 30 29 28 28 28 28
10 10 9 8 8 7 7 7 9 11 13 14 15 14 12 11 10 10 10 10 10 10 10 10 11 12 13 13 13 13 14 14 14 15 15 16 16 16 17 17 18 18 19 20 21 21 22 23 24 25 26 26 27 27 28 28 28 29 30 30 31 32 31 32 32 33 33 35 35 35 35 35 34 34 34 34 34 33 32 31 30 29 29 29 29
8 9 8 7 6 6 6 8 10 12 14 15 14 12 11 10 9 9 9 9 9 9 10 10 11 11 12 13 14 14 14 14 14 14 14 14 15 15 15 16 17 18 18 19 20 20 21 22 23 24 25 25 25 25 26 26 27 28 28 28 29 30 30 31 31 30 31 32 33 33 33 33 32 32 31 32 32 32 32 31 29 29 30 30 28
6 6 5 4 4 5 6 7 9 12 14 14 13 12 12 11 11 10 10 9 9 9 9 10 11 11 12 12 12 12 12 12 12 12 12 12 12 13 14 15 16 17 18 19 20 20 21 23 24 25 26 26 26 26 25 25 26 26 27 27 27 26 27 28 28 28 29 30 31 31 31 30 29 29 29 28 29 29 30 29 29 29 29 29 26
5 4 4 3 2 3 3 6 9 12 13 12 11 11 11 12 12 11 11 10 9 9 9 9 10 11 11 11 11 10 10 9 9 9 9 10 12 13 14 15 16 18 19 20 21 22 22 23 25 25 26 27 27 25 24 24 24 24 24 25 25 24 24 24 24 24 27 29 29 28 28 27 26 26 25 25 24 25 25 26 26 26 26 27 25
3 4 4 4 3 3 4 6 9 11 11 11 10 10 11 13 13 13 12 11 9 8 8 8 10 10 10 9 10 9 8 7 7 7 8 9 11 12 14 15 15 16 18 19 20 21 22 23 24 24 24 24 25 24 22 21 21 21 21 22 22 21 21 21 21 22 24 26 27 26 25 24 24 24 23 21 20 20 20 21 22 23 24 24 23
1 1 3 4 4 4 4 6 9 10 10 9 9 10 13 14 15 15 14 13 11 9 7 8 9 10 9 9 9 8 8 7 8 9 11 11 10 10 10 11 12 14 15 16 17 19 20 21 22 22 21 20 21 22 21 19 19 19 18 17 16 16 16 17 19 21 23 24 24 23 22 22 23 23 21 18 17 17 18 19 20 21 22 21 21
Wind_Direction
205 211 211 210 207 204 204 208 209 211 216 220 220 220 222 222 213 204 198 194 191 190 191 190 187 185 185 186 185 186 186 184 181 183 187 193 197 200 204 205 205 208 206 205 210 210 215 220 211 206 208 210 210 205 200 196 191 190 180 174 179 177 172 180 193 202 197 183 170 159 152 147 136 143 174 177 178 179 164 154 158 164 167 166 164
203 211 211 208 208 206 205 208 211 213 215 218 219 219 223 222 214 204 195 191 189 188 189 189 188 188 188 186 184 183 183 181 180 184 190 193 194 193 192 190 191 195 199 203 206 207 210 219 215 208 208 210 210 208 200 193 192 191 184 176 179 182 179 184 192 199 203 200 186 164 149 141 134 152 179 179 180 182 169 164 170 175 179 181 181
200 209 208 206 209 207 205 205 209 214 216 218 219 220 222 221 214 203 194 190 185 185 188 188 190 190 188 185 182 179 179 179 179 184 188 189 189 186 181 179 182 186 190 195 199 200 199 204 208 201 201 204 203 205 196 190 190 189 186 180 180 183 185 189 192 196 204 206 195 169 153 145 138 160 182 181 184 185 174 168 174 190 191 190 196
199 207 204 204 208 206 202 201 203 208 216 220 220 221 222 220 214 200 190 189 185 184 186 188 190 187 182 181 179 178 180 181 180 184 186 185 183 180 177 175 178 182 186 191 192 192 187 185 187 185 187 189 189 194 194 192 193 190 187 183 183 188 190 191 192 196 203 202 195 177 164 155 144 168 182 173 187 187 160 156 166 193 197 199 214
197 200 199 203 208 204 200 198 195 198 208 216 218 219 219 219 213 196 187 189 186 185 186 188 189 183 179 179 180 180 181 184 184 183 181 177 175 175 176 177 180 183 182 184 182 179 177 175 176 176 177 181 182 185 187 191 194 194 193 186 185 192 197 198 195 195 200 205 209 192 172 166 163 179 175 148 153 139 128 140 158 185 197 202 206
198 199 197 202 207 204 199 197 197 200 204 209 214 216 216 216 210 192 187 190 187 187 188 188 186 183 183 183 185 183 181 184 183 178 173 170 171 173 176 179 181 181 179 178 176 176 179 182 184 177 175 179 182 186 185 187 192 195 197 193 189 190 199 207 204 202 201 205 214 205 176 169 170 182 171 142 118 95 110 126 142 157 156 143 124
197 200 199 201 205 203 198 197 201 208 211 211 213 215 214 213 206 191 190 191 188 188 188 187 185 183 185 189 190 185 183 181 172 164 165 167 169 171 174 178 179 179 178 178 178 182 189 196 195 183 178 180 184 191 192 191 192 194 200 202 200 198 198 205 209 209 208 207 212 212 208 215 201 202 181 156 131 108 114 131 134 137 130 119 113
196 199 200 203 204 202 198 197 201 210 215 217 215 214 213 211 204 194 193 191 188 188 188 187 186 184 185 189 190 184 182 177 164 160 164 165 167 168 174 178 178 179 176 177 180 186 193 197 197 192 187 185 184 189 195 199 196 197 204 208 210 210 204 203 209 213 213 214 215 219 227 236 248 260 212 179 150 130 132 144 139 136 131 123 117
197 198 199 201 202 200 197 199 204 208 214 221 219 216 215 211 203 198 196 192 189 188 188 188 187 185 185 189 187 180 180 177 168 166 167 167 169 171 176 180 180 179 178 184 194 206 211 205 203 202 196 193 192 192 197 205 206 207 215 217 217 219 213 207 209 213 218 226 228 231 235 235 239 233 208 206 177 149 147 154 147 142 138 128 122
197 198 200 200 198 197 196 200 206 209 213 220 221 218 216 210 203 203 200 194 190 190 191 190 187 185 187 190 185 179 179 178 175 173 171 173 176 176 178 179 178 177 178 188 200 214 222 217 214 212 203 199 199 197 195 202 209 213 220 223 222 223 220 214 213 214 216 226 234 238 240 236 234 228 210 198 187 174 165 158 151 150 145 133 126
195 197 200 199 197 198 199 203 208 211 214 219 221 220 216 210 206 206 203 196 191 192 194 192 188 185 188 189 183 180 181 178 178 177 175 179 180 180 181 180 178 174 171 165 165 192 206 208 211 208 205 203 201 196 187 187 200 210 217 221 222 223 221 218 218 218 217 220 226 233 240 242 246 253 240 203 189 188 171 155 153 155 148 138 131
192 193 196 195 196 201 204 206 211 216 218 218 219 220 218 214 212 209 204 199 194 194 194 192 188 187 188 187 181 180 179 175 177 177 175 179 181 183 184 180 174 165 154 133 124 156 184 197 205 200 196 200 204 206 200 192 194 203 214 218 220 222 220 219 220 221 223 223 223 227 234 242 250 263 257 217 199 203 177 158 156 156 149 142 134
182 189 192 193 197 203 209 211 213 221 224 220 219 221 222 221 218 212 205 200 195 193 193 191 188 186 188 185 178 177 178 173 175 176 174 177 179 181 180 171 162 154 137 108 110 131 158 182 198 200 199 200 207 217 212 204 197 200 209 212 213 217 218 223 225 225 229 231 229 229 229 229 233 242 242 220 204 201 182 163 158 158 154 148 142
126 163 177 193 207 210 215 217 220 224 224 223 223 223 226 226 220 214 210 204 197 192 190 188 185 185 187 183 174 174 177 175 179 182 178 174 170 164 153 134 125 121 84 63 118 124 135 154 176 192 208 215 223 228 212 204 199 199 206 209 211 214 215 218 222 223 226 229 229 227 219 213 214 221 225 218 208 198 183 168 160 158 159 155 149
121 156 178 198 214 218 221 224 224 224 223 223 225 225 227 227 223 219 214 208 199 191 188 186 182 183 186 180 174 177 180 182 190 189 183 174 160 144 140 128 99 86 72 79 124 123 131 139 156 181 205 222 240 252 217 206 201 199 203 211 216 216 215 214 215 220 223 224 223 214 204 201 204 209 211 213 215 208 194 180 167 159 161 163 158
150 176 194 204 211 218 227 231 228 225 221 220 224 228 230 228 225 219 210 204 199 190 186 184 178 180 186 183 181 184 187 193 195 191 187 172 152 151 153 136 102 87 78 63 8 295 251 216 191 198 211 227 245 261 244 220 208 203 203 210 216 218 219 217 215 219 221 219 212 201 194 192 191 195 199 202 207 212 205 193 181 169 167 169 168
161 181 196 202 207 219 231 236 232 226 217 216 222 233 240 239 230 219 206 199 196 187 181 182 180 181 188 188 185 183 188 198 196 192 187 169 162 173 173 158 129 86 64 50 349 288 255 232 220 222 226 233 240 246 251 240 221 211 208 208 211 213 214 215 215 218 221 213 199 191 187 184 184 186 189 189 192 203 204 196 192 215 251 179 172
176 183 188 191 204 219 228 230 228 224 218 216 219 233 248 242 227 220 209 197 193 184 177 181 184 184 185 184 181 180 185 191 191 194 191 177 176 182 174 160 150 52 3 356 330 305 255 231 227 230 231 229 230 227 234 239 227 217 214 207 203 204 208 214 218 221 222 207 191 186 183 182 185 186 182 180 182 191 196 197 198 225 320 214 175
168 180 186 186 195 208 218 222 223 222 221 218 216 231 250 242 231 222 198 189 190 186 179 182 187 186 183 182 181 182 182 183 188 195 194 185 183 179 165 160 172 261 309 315 317 315 272 236 232 234 230 219 215 210 210 219 214 209 209 205 197 197 204 215 228 232 227 209 192 185 182 182 186 186 178 175 175 183 191 196 203 211 244 151 158
143 176 188 187 188 192 189 185 200 212 217 216 212 222 244 255 260 229 193 187 187 186 186 188 190 188 186 186 186 184 181 182 188 197 194 186 183 175 160 166 189 250 299 304 309 308 274 239 231 235 231 214 206 197 185 191 194 193 195 195 190 192 201 208 226 242 239 220 201 188 184 182 181 179 174 172 173 181 193 200 205 210 190 152 141
138 172 191 191 184 187 180 166 175 203 220 219 213 212 222 240 244 207 195 193 187 184 188 191 191 193 193 191 190 187 185 188 193 193 188 182 179 168 164 187 206 242 288 302 301 288 248 226 223 229 220 202 198 192 178 174 178 185 189 191 188 186 192 200 209 222 226 223 206 188 184 181 175 174 172 170 172 180 196 208 210 212 205 189 175
141 151 169 189 184 179 182 179 182 190 196 198 204 209 212 225 227 196 188 194 188 182 188 195 199 202 200 196 195 192 190 194 195 189 184 182 178 162 166 205 222 256 286 286 262 228 207 207 216 221 207 191 190 187 181 175 179 188 190 194 193 180 179 192 200 200 189 184 187 179 178 177 172 170 170 169 172 181 193 204 209 215 219 219 217
167 154 155 169 172 168 166 159 158 154 141 148 162 176 196 214 216 191 174 184 187 187 193 200 204 206 203 200 198 195 194 195 192 188 184 181 177 168 180 217 242 276 282 251 211 194 195 207 217 221 213 202 197 195 197 197 196 200 200 202 201 184 174 188 195 189 174 161 167 170 172 172 170 167 169 173 177 184 192 200 209 219 227 232 234
168 167 161 160 159 157 153 147 145 144 130 118 122 130 152 179 181 165 153 165 182 191 198 202 203 203 204 203 200 197 197 193 189 188 182 178 180 179 179 195 252 271 252 214 201 198 205 215 222 226 222 214 211 211 217 222 219 209 201 204 207 198 188 193 198 194 182 163 159 167 170 170 170 170 173 178 182 187 196 207 221 231 237 241 244
144 155 159 153 151 151 151 151 152 154 150 139 129 127 133 141 142 144 148 152 168 186 196 201 203 206 208 205 200 199 200 195 189 187 182 180 182 173 160 165 200 223 203 199 209 216 221 224 224 227 224 213 212 216 221 223 216 200 193 199 207 205 200 202 206 210 206 189 169 168 173 173 174 177 179 182 186 193 204 217 231 239 243 246 248
129 141 150 152 153 153 154 157 159 160 159 156 151 142 138 138 137 141 147 148 160 176 185 193 202 208 209 204 200 202 204 200 192 187 184 181 173 158 149 149 143 149 170 186 201 203 204 214 218 224 222 210 203 208 215 210 197 189 191 199 204 206 208 210 212 216 217 214 203 190 189 189 186 188 194 204 213 218 224 233 238 242 245 246 247
135 134 143 154 156 154 154 152 150 151 151 150 150 147 144 143 143 145 147 152 164 174 178 188 201 208 206 202 200 203 207 205 195 187 182 173 158 148 151 150 139 142 154 148 142 142 117 104 108 165 213 213 205 200 202 203 197 195 201 207 206 206 210 213 217 219 215 214 216 216 215 216 213 214 222 230 237 240 244 245 242 243 243 242 244
140 139 144 148 144 143 144 142 141 141 140 139 139 140 143 145 145 147 150 156 166 175 178 184 195 201 200 199 202 205 210 207 196 190 185 173 157 150 156 159 152 150 155 153 134 133 124 103 79 66 90 201 209 205 205 210 211 209 213 217 211 206 207 210 214 216 210 210 216 220 224 226 227 230 234 236 241 248 253 250 244 244 242 238 236
115 120 126 128 128 131 130 131 134 136 135 133 132 135 139 139 139 141 147 154 162 168 173 179 189 196 196 199 206 211 213 208 200 201 203 193 185 190 205 232 213 182 174 189 212 221 212 183 150 92 69 76 123 197 217 221 218 213 216 224 216 206 205 207 208 208 207 209 214 219 224 228 231 236 237 237 240 247 251 252 252 254 258 255 245
92 91 94 103 115 123 123 123 126 128 130 130 130 133 133 131 132 135 139 148 156 160 166 175 187 195 196 201 207 207 207 205 200 203 207 203 207 217 228 249 249 224 197 205 223 231 230 214 197 195 180 75 60 41 280 242 231 225 224 225 219 208 203 205 208 211 212 213 216 220 223 226 230 234 236 239 246 251 253 256 258 259 261 261 257
87 91 91 93 103 112 116 117 118 120 124 127 130 132 130 128 130 131 132 140 148 153 161 173 184 192 195 202 202 196 194 195 193 195 198 197 207 215 219 228 232 220 211 219 224 225 228 222 211 207 213 227 281 319 322 297 262 244 234 232 228 219 212 211 213 216 220 222 225 228 229 231 234 238 242 249 255 260 262 263 263 263 261 258 255
91 100 103 101 105 109 109 109 111 114 117 121 125 129 127 127 129 129 132 142 147 148 153 160 166 172 173 179 185 185 188 193 196 201 201 194 195 200 204 209 213 215 222 227 225 223 226 228 223 221 226 234 246 258 267 274 276 268 255 245 241 236 233 231 229 229 230 232 234 235 237 239 242 247 253 259 264 268 269 268 269 269 267 263 258
100 106 107 105 106 106 105 106 107 108 111 116 121 123 121 122 125 126 131 139 142 142 142 139 140 147 150 157 168 171 174 178 180 186 189 187 190 197 200 203 208 217 223 226 227 227 228 233 233 233 238 243 246 250 251 249 252 257 257 255 253 250 248 248 248 249 248 246 245 245 245 247 250 256 261 268 272 274 273 273 273 273 271 269 266
98 102 103 105 107 107 106 107 107 108 110 113 116 117 115 117 120 121 125 128 129 129 128 125 126 129 134 144 160 165 167 171 171 174 180 183 189 197 200 201 203 209 216 222 226 230 233 239 243 243 246 249 250 250 249 248 246 247 249 252 253 253 253 254 256 258 259 260 259 257 257 258 260 263 267 273 277 279 280 279 278 276 273 271 270
92 93 94 99 105 108 108 109 109 110 111 112 113 115 116 117 119 121 121 120 120 118 115 114 115 114 118 127 143 155 164 171 177 184 186 185 190 198 202 204 206 209 214 218 223 231 237 242 246 250 251 252 253 253 252 251 251 250 250 250 250 251 253 255 258 259 261 262 263 264 265 267 268 269 272 276 280 283 284 282 280 279 277 276 274
92 90 89 91 98 102 106 108 110 110 110 110 111 114 119 120 120 121 120 118 119 117 113 112 112 110 112 117 125 136 147 155 169 188 194 189 192 200 204 207 213 218 221 225 231 238 243 245 247 250 252 253 255 257 258 258 256 254 254 253 252 251 250 251 254 257 260 261 262 263 265 267 269 270 273 276 279 280 280 280 279 278 278 277 275
94 89 88 91 94 96 99 103 106 106 105 105 106 109 116 118 117 117 117 117 116 113 110 111 110 109 110 112 114 122 130 135 146 163 173 175 182 193 201 207 217 224 228 233 240 244 247 250 252 251 253 255 257 258 260 261 261 260 259 259 258 256 254 252 251 251 255 259 261 262 264 266 267 269 271 274 275 277 277 276 274 274 275 276 275
93 88 88 91 94 97 100 102 103 102 101 103 104 102 106 110 109 109 112 113 108 102 100 102 102 101 104 107 109 113 118 124 135 143 147 153 165 179 191 201 212 221 226 234 241 246 249 252 255 256 256 257 259 261 262 262 263 263 263 263 262 261 260 258 256 253 253 255 258 260 261 263 265 267 268 270 272 274 275 275 275 275 276 277 277
90 89 89 87 88 95 102 103 100 96 94 98 103 98 96 98 97 99 106 104 97 91 88 86 83 81 83 89 93 100 110 119 128 134 140 152 169 184 198 211 222 229 231 235 241 246 251 254 256 259 261 261 263 265 266 267 267 268 268 268 268 267 267 265 263 262 259 258 260 260 259 261 264 266 267 270 272 274 274 276 278 278 278 279 281
87 89 92 93 92 94 96 94 91 88 83 84 94 103 93 84 82 88 94 88 79 74 73 69 65 60 57 52 46 37 23 357 317 303 293 281 272 269 266 261 259 259 260 259 259 259 260 261 261 261 263 263 264 267 270 273 273 273 273 273 273 273 272 270 268 267 266 265 266 265 263 264 267 268 269 271 273 273 275 277 277 276 278 281 282
90 90 94 97 95 91 89 86 84 83 81 79 85 98 89 73 68 72 71 64 55 47 43 37 29 23 13 357 343 331 322 316 309 303 298 292 288 285 283 281 279 278 277 276 276 275 274 274 273 273 272 272 271 272 274 277 278 279 278 278 277 275 274 272 270 268 268 267 268 269 268 267 268 269 268 265 265 270 274 277 278 278 279 279 278
100 98 99 101 95 87 83 81 77 73 71 65 66 76 72 61 56 58 53 44 35 27 21 12 2 354 347 342 336 328 321 317 311 305 301 297 295 293 290 288 287 286 286 286 285 284 284 283 282 281 280 279 278 277 277 277 278 279 279 279 279 278 277 276 274 272 271 270 270 272 272 268 265 265 264 261 260 265 270 274 278 281 280 277 275
110 110 110 107 98 91 83 77 71 65 58 50 45 49 48 40 42 46 40 28 18 10 3 358 354 350 346 342 337 332 325 321 317 313 309 307 304 301 300 299 297 296 294 294 292 291 290 289 288 287 286 284 282 280 279 277 276 276 276 276 276 276 276 277 277 276 275 274 273 273 273 270 265 261 258 257 257 260 264 269 274 278 278 276 276
123 121 113 102 94 91 87 80 68 55 45 36 30 30 28 26 31 32 26 18 14 7 357 352 349 347 346 341 336 331 325 320 317 314 311 309 307 305 303 301 300 299 298 297 296 294 293 291 289 289 288 288 287 286 284 282 280 277 276 275 275 274 274 275 276 277 277 277 276 275 274 273 270 266 261 257 256 259 264 268 272 275 275 274 273
124 116 108 100 95 91 87 79 65 48 35 26 20 16 15 19 26 24 17 12 9 3 357 353 350 348 347 342 336 331 325 321 319 316 314 313 310 309 308 305 302 300 298 296 295 294 293 292 290 289 287 286 286 285 284 284 282 279 276 274 273 273 273 273 273 274 275 276 276 275 274 273 272 270 267 263 261 262 264 267 269 271 271 270 269
118 112 109 108 104 96 81 67 56 41 28 20 15 13 16 24 27 22 16 10 4 359 356 354 351 348 345 341 338 334 331 328 326 324 322 321 319 318 317 314 310 307 305 303 301 299 297 296 294 292 290 288 287 286 286 286 285 282 279 276 273 272 272 273 273 274 275 276 276 276 276 276 274 273 270 268 266 264 263 263 264 266 268 267 266
110 110 111 108 101 90 70 54 45 36 27 21 19 21 27 33 33 26 20 13 2 356 354 352 350 346 340 338 336 335 334 332 330 329 328 327 326 324 322 317 313 311 309 307 305 303 301 299 297 295 294 293 292 291 290 289 289 287 285 283 279 276 274 274 275 276 276 276 277 278 279 280 280 279 276 273 269 265 263 262 262 264 267 267 266
113 110 111 107 94 80 61 45 40 36 29 24 26 33 37 38 36 31 26 18 8 2 1 358 354 349 344 341 339 337 337 335 332 332 332 330 329 327 325 323 320 316 314 312 308 306 303 301 299 297 296 296 296 297 297 296 294 293 291 288 285 281 277 275 275 275 275 275 276 278 280 282 283 284 282 278 274 269 265 263 264 266 269 272 272
132 138 143 147 129 97 64 48 43 38 32 28 32 39 43 42 38 33 27 21 12 7 9 9 5 357 352 351 350 347 346 345 344 345 345 342 340 335 331 329 326 322 320 317 313 310 308 305 303 303 304 304 306 308 309 307 304 300 296 291 288 284 280 275 273 273 273 273 275 277 280 282 284 286 285 281 276 272 269 268 268 270 273 276 274
134 165 174 169 148 121 87 64 53 45 39 35 35 41 45 41 37 31 24 20 17 13 12 16 17 12 6 8 11 11 10 11 11 11 8 2 355 347 339 334 333 331 328 324 320 316 313 311 311 313 315 315 316 318 319 315 310 304 298 293 290 287 282 276 272 270 269 270 273 277 280 285 287 287 284 278 270 266 265 267 269 270 274 276 274
54 182 198 190 163 130 94 68 56 48 43 37 36 42 44 40 34 29 21 15 14 12 11 19 24 22 20 25 30 32 33 30 22 18 14 10 11 11 2 353 350 346 339 334 328 322 319 320 322 323 324 323 323 325 326 324 317 310 303 297 292 289 287 281 276 273 270 270 272 275 280 285 286 283 279 274 266 260 259 261 264 266 267 268 269
Height
1482 1483 1484 1485 1488 1491 1493 1495 1496 1498 1499 1501 1502 1503 1504 1505 1506 1508 1510 1513 1516 1518 1519 1521 1522 1524 1525 1526 1528 1530 1532 1534 1536 1537 1538 1539 1540 1540 1541 1541 1542 1543 1544 1545 1546 1547 1549 1550 1551 1552 1553 1554 1554 1554 1555 1556 1556 1557 1558 1558 1560 1560 1561 1561 1562 1563 1563 1564 1565 1567 1568 1570 1571 1572 1572 1573 1573 1574 1576 1577 1577 1577 1578 1579 1579
1480 1481 1482 1484 1487 1489 1492 1493 1495 1496 1498 1499 1500 1500 1501 1503 1504 1506 1509 1511 1514 1516 1518 1520 1522 1523 1524 1526 1528 1530 1532 1533 1535 1536 1537 1538 1539 1540 1540 1541 1542 1542 1543 1544 1545 1546 1548 1549 1550 1551 1552 1553 1553 1553 1554 1555 1555 1556 1557 1558 1560 1561 1561 1562 1562 1563 1563 1564 1565 1566 1568 1570 1572 1572 1572 1573 1574 1574 1576 1577 1577 1577 1578 1579 1579
1478 1478 1480 1483 1485 1488 1490 1492 1493 1495 1496 1496 1497 1498 1499 1500 1502 1504 1507 1510 1512 1515 1517 1520 1522 1523 1525 1527 1528 1530 1532 1533 1535 1536 1537 1538 1538 1539 1540 1540 1541 1542 1542 1543 1544 1545 1546 1548 1549 1550 1551 1551 1552 1552 1553 1553 1554 1556 1557 1558 1559 1560 1561 1562 1562 1563 1563 1564 1565 1566 1568 1569 1572 1573 1572 1573 1574 1574 1576 1577 1577 1577 1578 1578 1578
1475 1476 1480 1481 1482 1485 1487 1488 1490 1492 1493 1493 1494 1496 1497 1498 1500 1503 1506 1509 1511 1513 1516 1518 1520 1522 1524 1526 1528 1529 1531 1532 1534 1535 1536 1537 1537 1538 1539 1540 1541 1541 1542 1542 1543 1544 1545 1547 1548 1549 1550 1550 1551 1551 1552 1553 1553 1555 1556 1557 1559 1560 1561 1562 1562 1563 1563 1564 1565 1566 1567 1569 1571 1572 1572 1573 1574 1574 1576 1577 1576 1576 1577 1577 1577
1471 1473 1477 1477 1479 1481 1483 1484 1485 1484 1485 1487 1490 1492 1494 1496 1499 1503 1505 1507 1510 1512 1514 1516 1518 1520 1522 1524 1526 1528 1530 1531 1532 1534 1535 1536 1537 1537 1538 1539 1540 1541 1541 1542 1542 1544 1545 1546 1547 1548 1549 1550 1550 1551 1552 1552 1553 1554 1555 1557 1558 1560 1561 1562 1562 1563 1563 1564 1565 1565 1567 1568 1569 1570 1571 1573 1574 1574 1576 1578 1576 1576 1576 1577 1577
1469 1470 1472 1473 1476 1479 1480 1481 1481 1479 1480 1482 1485 1489 1491 1494 1498 1502 1504 1505 1508 1510 1512 1514 1517 1519 1520 1522 1524 1526 1528 1530 1532 1533 1534 1535 1536 1537 1538 1539 1540 1541 1541 1542 1543 1543 1545 1546 1547 1548 1549 1549 1550 1551 1551 1552 1553 1554 1555 1556 1558 1559 1560 1561 1562 1562 1563 1564 1565 1565 1566 1567 1568 1569 1570 1572 1574 1575 1577 1578 1577 1576 1576 1577 1577
1466 1468 1469 1470 1472 1476 1477 1478 1479 1480 1480 1481 1483 1487 1490 1493 1497 1500 1502 1504 1506 1508 1510 1513 1515 1517 1519 1521 1523 1525 1528 1530 1532 1533 1534 1535 1535 1536 1537 1538 1540 1540 1541 1542 1542 1543 1544 1545 1546 1547 1548 1549 1550 1550 1551 1552 1553 1554 1555 1556 1557 1558 1559 1560 1561 1561 1562 1563 1564 1565 1565 1566 1567 1568 1569 1571 1573 1575 1577 1577 1576 1576 1577 1577 1578
1461 1463 1466 1467 1469 1472 1474 1475 1478 1480 1481 1482 1484 1486 1490 1493 1497 1499 1501 1502 1504 1507 1509 1511 1513 1515 1517 1520 1523 1525 1528 1530 1532 1533 1534 1535 1535 1536 1537 1538 1539 1540 1541 1541 1542 1543 1544 1545 1546 1547 1548 1548 1549 1550 1551 1552 1553 1554 1555 1556 1556 1557 1559 1560 1560 1561 1561 1562 1563 1564 1565 1566 1566 1567 1568 1569 1571 1573 1575 1576 1576 1576 1577 1577 1578
1456 1459 1461 1464 1467 1469 1472 1475 1478 1480 1482 1483 1484 1487 1490 1494 1497 1499 1500 1501 1504 1506 1508 1510 1512 1514 1517 1519 1522 1525 1528 1530 1531 1533 1534 1534 1535 1536 1538 1538 1539 1540 1540 1541 1542 1543 1544 1544 1545 1546 1547 1548 1549 1550 1551 1551 1553 1554 1554 1555 1556 1557 1558 1559 1560 1560 1561 1562 1562 1563 1564 1565 1566 1566 1567 1568 1569 1571 1573 1574 1574 1575 1576 1576 1577
1455 1458 1460 1463 1466 1469 1473 1476 1478 1480 1482 1482 1484 1487 1490 1493 1496 1498 1499 1501 1503 1506 1508 1510 1512 1514 1516 1519 1521 1524 1527 1529 1531 1532 1534 1535 1535 1536 1537 1538 1539 1540 1541 1542 1542 1543 1544 1544 1545 1546 1547 1548 1549 1550 1551 1551 1552 1553 1554 1555 1556 1557 1558 1558 1559 1560 1561 1561 1562 1563 1563 1564 1565 1565 1566 1567 1568 1569 1571 1572 1573 1574 1574 1575 1577
1455 1459 1462 1465 1468 1470 1474 1476 1478 1481 1482 1483 1484 1487 1489 1492 1495 1496 1499 1501 1503 1505 1507 1509 1511 1513 1516 1519 1521 1524 1526 1528 1530 1532 1533 1534 1535 1536 1537 1538 1539 1540 1541 1542 1543 1543 1544 1544 1545 1546 1547 1548 1549 1550 1551 1551 1552 1553 1553 1554 1555 1556 1557 1558 1559 1559 1560 1561 1561 1562 1563 1564 1564 1565 1565 1566 1567 1568 1569 1571 1573 1574 1574 1575 1576
1459 1463 1465 1468 1469 1472 1475 1476 1478 1480 1481 1483 1485 1486 1489 1491 1493 1495 1497 1499 1501 1503 1506 1508 1511 1513 1516 1519 1521 1524 1527 1528 1530 1532 1533 1534 1535 1536 1537 1538 1539 1540 1541 1542 1543 1543 1544 1544 1545 1546 1547 1548 1549 1550 1550 1551 1551 1552 1553 1553 1554 1555 1556 1557 1558 1559 1560 1560 1561 1561 1562 1563 1564 1565 1565 1566 1566 1567 1569 1571 1572 1574 1575 1575 1577
1464 1466 1469 1472 1473 1473 1475 1475 1477 1479 1481 1483 1485 1486 1488 1489 1491 1493 1495 1497 1498 1501 1504 1507 1511 1513 1517 1519 1522 1525 1527 1529 1530 1532 1533 1534 1536 1536 1537 1538 1539 1540 1541 1541 1542 1543 1544 1545 1546 1547 1547 1548 1549 1549 1550 1550 1551 1552 1552 1553 1553 1554 1555 1556 1557 1558 1559 1560 1561 1561 1562 1563 1564 1564 1565 1566 1567 1568 1569 1570 1573 1574 1575 1575 1577
1467 1471 1474 1477 1475 1473 1474 1474 1476 1477 1479 1482 1484 1486 1487 1487 1489 1491 1494 1496 1498 1500 1504 1508 1511 1514 1517 1520 1522 1525 1527 1529 1530 1532 1533 1535 1536 1537 1538 1539 1540 1540 1541 1541 1542 1543 1544 1545 1546 1547 1548 1548 1549 1549 1549 1550 1551 1551 1552 1552 1553 1554 1555 1556 1557 1557 1558 1559 1560 1561 1561 1562 1563 1564 1565 1566 1566 1568 1569 1570 1572 1574 1576 1576 1577
1470 1476 1476 1475 1474 1472 1473 1474 1475 1477 1479 1481 1482 1484 1486 1486 1489 1491 1494 1497 1499 1501 1505 1508 1512 1515 1519 1521 1523 1525 1527 1529 1530 1532 1534 1535 1536 1538 1539 1540 1540 1541 1541 1541 1542 1543 1544 1545 1546 1547 1548 1548 1549 1549 1549 1550 1550 1551 1551 1552 1552 1553 1554 1555 1556 1557 1558 1559 1559 1560 1561 1562 1563 1564 1565 1566 1566 1567 1569 1569 1570 1572 1575 1576 1577
1470 1473 1474 1473 1473 1472 1472 1474 1476 1477 1478 1480 1482 1483 1485 1487 1490 1490 1492 1497 1500 1503 1507 1511 1514 1517 1520 1522 1523 1525 1527 1529 1531 1532 1534 1535 1536 1538 1539 1540 1540 1541 1541 1541 1542 1543 1544 1545 1546 1547 1548 1548 1549 1549 1549 1550 1550 1551 1551 1552 1553 1553 1554 1555 1556 1556 1557 1558 1559 1560 1561 1562 1563 1564 1565 1566 1567 1568 1569 1570 1571 1571 1572 1574 1577
1473 1473 1473 1472 1471 1471 1473 1474 1476 1477 1478 1480 1482 1484 1486 1488 1490 1490 1493 1497 1502 1507 1511 1513 1516 1518 1520 1522 1523 1525 1527 1529 1531 1533 1534 1535 1536 1538 1539 1539 1540 1541 1541 1541 1542 1543 1544 1545 1546 1547 1547 1548 1548 1549 1549 1550 1550 1551 1551 1552 1553 1553 1554 1555 1556 1556 1557 1558 1559 1559 1561 1561 1563 1564 1565 1566 1567 1568 1569 1571 1572 1572 1572 1573 1574
1476 1476 1473 1470 1470 1472 1474 1475 1476 1477 1479 1480 1483 1485 1487 1488 1489 1491 1496 1501 1505 1509 1511 1513 1516 1518 1521 1522 1524 1525 1527 1529 1531 1532 1534 1535 1536 1538 1539 1539 1540 1541 1541 1542 1542 1543 1543 1544 1545 1546 1547 1548 1548 1549 1549 1549 1550 1551 1551 1552 1553 1554 1555 1555 1556 1556 1557 1558 1559 1559 1560 1561 1563 1564 1565 1566 1567 1568 1570 1572 1573 1574 1574 1573 1574
1476 1476 1474 1471 1472 1475 1476 1477 1477 1478 1479 1481 1484 1486 1488 1489 1490 1494 1499 1503 1507 1510 1511 1513 1516 1519 1521 1522 1523 1525 1527 1529 1530 1531 1533 1534 1536 1538 1538 1539 1540 1541 1541 1542 1542 1543 1543 1544 1544 1545 1546 1547 1548 1548 1549 1549 1550 1551 1551 1552 1553 1554 1555 1556 1556 1557 1557 1558 1559 1559 1560 1562 1563 1564 1565 1566 1567 1569 1571 1573 1574 1575 1575 1576 1576
1476 1477 1475 1474 1476 1477 1479 1479 1479 1479 1480 1481 1484 1487 1490 1493 1495 1499 1501 1502 1506 1509 1511 1514 1517 1518 1520 1521 1523 1525 1527 1528 1530 1531 1533 1534 1536 1537 1538 1539 1540 1541 1541 1542 1542 1543 1543 1544 1544 1545 1546 1546 1547 1548 1549 1549 1550 1551 1552 1553 1554 1554 1555 1556 1557 1557 1557 1558 1559 1560 1561 1562 1563 1564 1565 1566 1568 1569 1572 1573 1575 1576 1577 1577 1578
1477 1478 1478 1478 1478 1479 1481 1481 1480 1480 1481 1482 1485 1487 1491 1494 1497 1499 1501 1502 1505 1508 1511 1514 1516 1518 1520 1522 1524 1525 1527 1528 1529 1531 1533 1534 1536 1537 1537 1539 1540 1540 1541 1542 1542 1542 1543 1544 1544 1545 1546 1546 1547 1548 1549 1549 1550 1551 1552 1553 1554 1555 1556 1557 1557 1558 1558 1558 1559 1560 1561 1562 1563 1565 1566 1567 1568 1570 1572 1574 1575 1576 1577 1578 1579
1478 1479 1479 1480 1480 1481 1482 1482 1482 1482 1482 1484 1486 1489 1492 1494 1496 1498 1500 1502 1505 1507 1510 1513 1516 1518 1520 1522 1524 1525 1527 1528 1529 1530 1532 1534 1535 1536 1537 1538 1539 1540 1541 1541 1542 1542 1543 1544 1545 1545 1546 1546 1547 1548 1548 1549 1550 1551 1552 1553 1554 1555 1556 1557 1558 1559 1559 1559 1560 1560 1561 1563 1564 1565 1566 1567 1568 1570 1572 1573 1575 1576 1577 1578 1579
1479 1480 1480 1481 1481 1482 1483 1484 1484 1484 1484 1486 1488 1490 1492 1493 1495 1498 1500 1502 1505 1507 1510 1512 1514 1517 1520 1522 1523 1525 1526 1527 1529 1530 1532 1533 1534 1536 1537 1538 1539 1540 1540 1541 1541 1542 1543 1544 1545 1546 1546 1546 1547 1547 1548 1549 1550 1551 1551 1552 1553 1555 1556 1557 1558 1559 1560 1560 1560 1561 1562 1563 1564 1566 1567 1568 1569 1570 1572 1573 1574 1575 1576 1577 1578
1478 1479 1480 1481 1481 1483 1484 1484 1485 1485 1486 1488 1490 1492 1493 1494 1495 1498 1500 1502 1504 1507 1509 1511 1514 1517 1519 1521 1522 1524 1525 1526 1528 1530 1531 1533 1534 1535 1536 1538 1539 1539 1540 1541 1541 1542 1543 1544 1545 1546 1546 1546 1547 1547 1548 1549 1549 1550 1551 1552 1553 1555 1556 1557 1558 1559 1560 1561 1561 1562 1563 1564 1565 1566 1567 1568 1569 1570 1571 1572 1574 1575 1576 1577 1578
1477 1478 1480 1480 1480 1482 1483 1483 1484 1486 1488 1490 1491 1493 1494 1495 1496 1498 1500 1502 1504 1507 1509 1511 1513 1515 1517 1519 1521 1523 1525 1526 1528 1529 1531 1533 1534 1535 1536 1537 1538 1539 1540 1541 1542 1543 1543 1544 1545 1546 1546 1546 1547 1547 1548 1548 1549 1550 1551 1552 1553 1554 1556 1557 1558 1559 1560 1561 1562 1563 1564 1565 1566 1566 1567 1568 1569 1570 1571 1572 1573 1574 1575 1576 1577
1478 1479 1480 1481 1481 1481 1482 1483 1484 1486 1488 1489 1491 1493 1494 1495 1497 1498 1500 1502 1504 1506 1509 1511 1513 1514 1516 1519 1521 1523 1525 1526 1528 1529 1531 1532 1533 1534 1535 1536 1538 1539 1540 1541 1542 1543 1544 1544 1545 1545 1546 1546 1547 1547 1547 1548 1548 1549 1550 1551 1553 1554 1555 1557 1558 1559 1560 1561 1562 1563 1564 1565 1566 1566 1567 1568 1569 1570 1571 1572 1572 1573 1574 1575 1576
1480 1480 1481 1481 1480 1480 1481 1482 1484 1485 1487 1489 1491 1493 1494 1496 1497 1499 1501 1503 1504 1506 1509 1511 1513 1515 1517 1519 1521 1523 1524 1526 1527 1528 1530 1531 1532 1534 1535 1536 1538 1539 1541 1542 1543 1544 1544 1545 1545 1545 1545 1546 1546 1547 1547 1548 1548 1549 1550 1551 1552 1554 1555 1556 1557 1558 1559 1561 1562 1563 1564 1565 1566 1566 1567 1568 1569 1570 1570 1571 1572 1572 1573 1573 1574
1481 1481 1481 1481 1480 1481 1481 1481 1483 1485 1487 1489 1491 1493 1495 1496 1497 1499 1501 1502 1504 1506 1508 1510 1512 1514 1517 1519 1520 1521 1523 1525 1526 1527 1529 1530 1531 1532 1534 1536 1538 1539 1541 1542 1543 1544 1545 1545 1546 1545 1546 1546 1546 1547 1547 1548 1549 1549 1550 1551 1552 1554 1555 1556 1557 1558 1559 1560 1561 1562 1563 1564 1565 1566 1567 1568 1568 1569 1570 1570 1571 1571 1572 1572 1573
1483 1483 1482 1482 1482 1484 1484 1483 1483 1485 1487 1489 1491 1493 1495 1496 1497 1499 1500 1502 1504 1505 1507 1509 1512 1514 1516 1518 1519 1521 1522 1524 1525 1526 1528 1529 1530 1532 1535 1537 1538 1539 1541 1543 1544 1545 1545 1546 1546 1546 1546 1546 1547 1547 1548 1548 1549 1549 1550 1551 1552 1553 1555 1556 1557 1558 1559 1560 1561 1562 1563 1564 1565 1566 1566 1567 1568 1568 1569 1569 1570 1570 1571 1571 1572
1485 1485 1485 1484 1484 1485 1486 1485 1484 1485 1487 1489 1491 1493 1494 1496 1498 1499 1501 1502 1504 1505 1507 1509 1512 1514 1516 1517 1518 1520 1522 1523 1524 1526 1528 1530 1531 1533 1536 1538 1539 1540 1541 1542 1543 1544 1545 1545 1545 1546 1546 1546 1547 1548 1548 1549 1549 1550 1550 1551 1552 1553 1554 1556 1557 1558 1559 1560 1561 1562 1562 1563 1564 1564 1565 1566 1566 1567 1567 1568 1568 1569 1569 1570 1570
1489 1487 1488 1489 1487 1486 1487 1486 1484 1485 1487 1489 1491 1493 1495 1496 1498 1500 1502 1504 1505 1506 1508 1509 1512 1514 1515 1517 1518 1520 1522 1523 1525 1526 1528 1530 1531 1533 1536 1537 1538 1540 1541 1542 1543 1543 1544 1545 1545 1545 1546 1546 1547 1548 1548 1549 1549 1550 1551 1551 1552 1553 1554 1555 1556 1557 1558 1559 1560 1561 1562 1562 1563 1563 1564 1565 1565 1566 1566 1566 1567 1567 1568 1568 1569
1493 1491 1492 1492 1491 1489 1489 1487 1486 1486 1488 1490 1492 1494 1496 1498 1500 1502 1504 1506 1507 1508 1509 1510 1512 1514 1515 1517 1519 1520 1522 1523 1525 1526 1527 1529 1531 1532 1535 1536 1538 1539 1540 1541 1542 1543 1543 1544 1544 1545 1545 1546 1546 1547 1548 1548 1549 1550 1551 1551 1552 1553 1554 1555 1556 1556 1557 1558 1559 1560 1560 1561 1561 1562 1563 1563 1564 1564 1565 1565 1565 1566 1566 1566 1567
1496 1495 1495 1494 1492 1491 1490 1489 1489 1490 1491 1493 1495 1496 1498 1500 1501 1503 1505 1507 1508 1509 1510 1511 1513 1515 1517 1518 1520 1521 1522 1523 1525 1526 1527 1529 1530 1532 1534 1535 1537 1538 1539 1540 1541 1541 1542 1543 1543 1544 1545 1545 1546 1546 1547 1547 1548 1549 1549 1550 1551 1552 1553 1554 1555 1555 1556 1557 1557 1558 1558 1559 1560 1561 1561 1562 1562 1563 1563 1563 1564 1564 1564 1565 1565
1498 1497 1496 1495 1493 1492 1492 1491 1492 1494 1495 1497 1498 1499 1501 1502 1504 1505 1506 1507 1508 1510 1511 1513 1515 1516 1518 1519 1521 1522 1523 1524 1525 1527 1528 1529 1531 1532 1533 1535 1536 1537 1538 1539 1540 1540 1541 1542 1542 1543 1544 1545 1545 1546 1546 1547 1547 1548 1548 1549 1550 1551 1552 1553 1553 1554 1554 1555 1555 1556 1556 1557 1558 1559 1559 1560 1560 1560 1561 1561 1562 1562 1562 1563 1563
1500 1499 1498 1497 1495 1494 1494 1494 1495 1497 1498 1500 1501 1502 1504 1505 1506 1507 1508 1509 1510 1511 1513 1515 1516 1518 1519 1521 1522 1523 1524 1525 1526 1527 1528 1529 1531 1532 1533 1534 1535 1536 1537 1538 1538 1539 1540 1540 1542 1543 1543 1544 1544 1545 1545 1546 1546 1547 1547 1548 1548 1549 1550 1550 1551 1552 1552 1552 1553 1553 1554 1555 1556 1556 1557 1558 1558 1558 1559 1559 1560 1560 1560 1560 1561
1502 1502 1502 1501 1499 1498 1498 1498 1499 1500 1501 1503 1505 1506 1507 1507 1508 1508 1509 1511 1512 1513 1515 1517 1518 1520 1521 1522 1523 1524 1525 1526 1527 1528 1528 1529 1531 1532 1533 1534 1534 1535 1536 1536 1537 1538 1539 1540 1540 1541 1542 1542 1543 1544 1544 1545 1545 1546 1546 1546 1547 1547 1547 1548 1548 1549 1550 1550 1551 1551 1552 1552 1553 1554 1555 1555 1556 1556 1556 1557 1557 1557 1558 1558 1558
1505 1505 1505 1504 1503 1503 1503 1503 1503 1504 1505 1507 1509 1511 1510 1510 1510 1511 1512 1513 1514 1515 1517 1519 1521 1522 1523 1524 1525 1526 1526 1527 1528 1528 1529 1530 1531 1532 1533 1534 1534 1534 1535 1536 1537 1538 1538 1539 1539 1540 1541 1541 1541 1542 1542 1543 1543 1544 1544 1544 1545 1545 1545 1545 1546 1546 1547 1547 1548 1548 1549 1550 1550 1551 1552 1553 1553 1553 1553 1553 1554 1554 1554 1555 1555
1506 1507 1507 1506 1506 1507 1507 1507 1506 1506 1508 1511 1513 1515 1514 1513 1513 1514 1514 1515 1516 1517 1519 1521 1522 1524 1525 1526 1527 1528 1528 1529 1529 1529 1530 1531 1531 1532 1532 1533 1534 1534 1534 1536 1536 1537 1537 1538 1538 1539 1540 1540 1540 1540 1540 1540 1541 1541 1542 1542 1542 1542 1543 1543 1543 1544 1544 1544 1544 1545 1547 1547 1547 1548 1549 1549 1549 1549 1549 1549 1550 1550 1550 1550 1551
1508 1508 1509 1509 1511 1512 1511 1511 1510 1510 1512 1514 1515 1517 1517 1515 1516 1517 1517 1517 1518 1519 1521 1522 1523 1524 1525 1526 1527 1528 1529 1529 1530 1530 1531 1531 1532 1532 1533 1533 1533 1534 1534 1535 1535 1535 1536 1536 1537 1537 1538 1538 1538 1538 1538 1538 1539 1539 1539 1539 1539 1539 1540 1540 1541 1541 1541 1541 1541 1543 1544 1544 1543 1544 1545 1545 1545 1545 1544 1545 1546 1546 1545 1545 1546
1510 1511 1513 1514 1516 1516 1515 1514 1514 1514 1516 1516 1517 1519 1519 1518 1518 1519 1518 1519 1519 1521 1522 1523 1524 1524 1525 1526 1527 1528 1528 1529 1530 1530 1530 1531 1531 1532 1533 1533 1533 1533 1533 1534 1534 1534 1534 1535 1535 1536 1536 1536 1537 1536 1536 1536 1536 1536 1536 1536 1536 1536 1536 1537 1537 1537 1538 1538 1538 1539 1541 1542 1540 1541 1541 1542 1541 1541 1540 1541 1542 1542 1541 1541 1542
1513 1515 1516 1518 1520 1520 1519 1518 1518 1519 1519 1520 1520 1520 1520 1521 1521 1520 1520 1520 1521 1522 1522 1523 1524 1524 1525 1526 1526 1527 1528 1528 1529 1529 1529 1530 1530 1531 1531 1532 1532 1532 1532 1532 1532 1533 1533 1533 1534 1534 1534 1535 1535 1535 1534 1534 1534 1533 1533 1533 1533 1533 1533 1533 1534 1534 1534 1534 1534 1534 1535 1537 1537 1537 1537 1537 1537 1537 1537 1537 1537 1538 1538 1538 1539
1517 1519 1520 1521 1522 1522 1521 1520 1521 1522 1521 1522 1522 1521 1521 1522 1521 1521 1521 1521 1522 1522 1523 1523 1524 1524 1525 1525 1526 1526 1527 1527 1528 1528 1528 1528 1528 1529 1529 1529 1529 1530 1530 1530 1530 1530 1530 1531 1531 1531 1532 1532 1532 1532 1532 1532 1532 1531 1531 1531 1531 1531 1530 1530 1530 1530 1530 1531 1531 1530 1531 1532 1533 1533 1533 1533 1533 1533 1533 1532 1533 1534 1534 1534 1535
1521 1522 1523 1523 1523 1523 1522 1522 1523 1523 1522 1522 1522 1521 1521 1522 1521 1521 1522 1522 1523 1523 1523 1524 1524 1524 1524 1525 1525 1525 1525 1526 1526 1526 1526 1526 1526 1526 1526 1526 1526 1526 1527 1527 1527 1527 1527 1527 1527 1528 1528 1528 1528 1528 1529 1529 1529 1529 1528 1528 1527 1527 1527 1526 1526 1526 1526 1526 1526 1526 1527 1528 1529 1529 1529 1529 1529 1529 1528 1528 1529 1529 1529 1529 1530
1523 1524 1525 1525 1525 1524 1524 1524 1524 1524 1524 1523 1522 1521 1522 1521 1521 1522 1522 1523 1523 1524 1524 1524 1524 1524 1524 1524 1524 1524 1524 1524 1524 1524 1524 1524 1524 1525 1524 1524 1524 1524 1524 1524 1523 1523 1523 1523 1523 1523 1523 1523 1523 1523 1524 1524 1525 1525 1525 1524 1523 1523 1523 1522 1521 1521 1521 1521 1521 1522 1522 1523 1524 1524 1525 1525 1525 1525 1525 1525 1525 1525 1525 1525 1525
1524 1525 1526 1526 1526 1526 1526 1526 1525 1525 1525 1524 1522 1522 1522 1521 1522 1522 1522 1523 1523 1523 1523 1523 1523 1523 1522 1522 1522 1522 1522 1523 1523 1523 1523 1522 1522 1523 1522 1522 1522 1522 1522 1521 1521 1521 1520 1520 1520 1519 1519 1519 1519 1519 1519 1519 1519 1520 1520 1520 1519 1518 1518 1518 1517 1516 1516 1516 1516 1516 1517 1517 1518 1519 1520 1521 1521 1522 1522 1521 1521 1521 1521 1520 1520
1525 1525 1526 1527 1527 1527 1527 1526 1526 1526 1525 1524 1523 1522 1522 1522 1522 1523 1523 1523 1523 1523 1523 1522 1522 1521 1521 1520 1520 1520 1521 1521 1521 1521 1520 1520 1520 1520 1520 1520 1520 1519 1519 1519 1518 1518 1518 1517 1517 1516 1515 1516 1515 1515 1515 1515 1514 1514 1514 1514 1514 1514 1513 1513 1512 1512 1512 1511 1511 1511 1512 1512 1513 1514 1515 1515 1516 1516 1517 1517 1517 1516 1516 1516 1516
1526 1526 1527 1527 1527 1527 1527 1526 1526 1525 1525 1524 1523 1523 1523 1523 1523 1523 1523 1523 1523 1523 1522 1522 1521 1521 1520 1520 1520 1519 1519 1519 1519 1519 1519 1518 1518 1518 1518 1518 1517 1517 1517 1516 1516 1515 1515 1514 1513 1512 1512 1512 1512 1512 1512 1511 1510 1510 1509 1509 1509 1509 1509 1509 1508 1508 1508 1507 1507 1506 1507 1508 1508 1509 1509 1510 1510 1511 1511 1511 1511 1512 1512 1512 1512
1527 1528 1528 1528 1528 1528 1527 1527 1526 1526 1525 1525 1524 1524 1523 1523 1523 1524 1523 1523 1523 1523 1522 1522 1521 1520 1520 1519 1519 1519 1518 1518 1518 1518 1517 1517 1517 1516 1516 1516 1515 1514 1514 1514 1513 1512 1512 1511 1510 1509 1509 1508 1509 1509 1509 1508 1507 1506 1505 1505 1504 1504 1505 1505 1505 1505 1504 1503 1503 1503 1503 1504 1504 1504 1504 1505 1505 1505 1506 1506 1507 1507 1507 1507 1507
1528 1529 1529 1529 1529 1529 1528 1528 1527 1527 1526 1526 1526 1525 1525 1524 1524 1524 1524 1523 1523 1522 1522 1521 1520 1520 1519 1519 1518 1518 1518 1517 1517 1517 1516 1516 1516 1515 1515 1514 1513 1512 1512 1511 1510 1509 1509 1508 1507 1506 1506 1506 1505 1506 1506 1505 1504 1503 1502 1501 1500 1500 1500 1500 1501 1501 1500 1499 1499 1499 1499 1500 1500 1500 1500 1500 1500 1501 1501 1502 1502 1502 1502 1502 1502
1528 1529 1529 1529 1529 1529 1528 1528 1528 1527 1527 1527 1526 1526 1526 1525 1525 1524 1524 1523 1522 1521 1521 1521 1520 1519 1519 1518 1518 1518 1517 1517 1517 1517 1517 1516 1516 1515 1514 1513 1513 1512 1511 1510 1508 1508 1507 1506 1505 1505 1505 1504 1503 1503 1503 1502 1501 1499 1499 1498 1497 1497 1496 1496 1497 1497 1496 1495 1495 1496 1496 1497 1497 1497 1497 1496 1496 1497 1497 1497 1498 1498 1498 1497 1498
1528 1528 1528 1528 1528 1528 1528 1528 1528 1528 1528 1527 1527 1527 1526 1526 1525 1524 1523 1522 1522 1521 1520 1520 1520 1519 1519 1518 1518 1518 1518 1517 1517 1517 1517 1517 1516 1516 1515 1514 1513 1512 1511 1509 1508 1507 1506 1505 1505 1504 1504 1503 1502 1501 1500 1499 1498 1497 1495 1495 1494 1494 1494 1494 1494 1493 1493 1492 1493 1493 1493 1494 1494 1494 1493 1493 1493 1493 1493 1493 1493 1493 1493 1493 1494